Погода в Мойобамбе

Перу     6°00′40″S   76°59′36″W
темп.,
°C
ветер,
м/с
пор.,
м/с
влажн.,
%
обл.,
%
осадки,
мм/ч
давл.,
гПа
погр.,
м
5 марта, пт
пт501:00+17юв019845 0.0 101323
04:00+16вюв019969 0.1 101223
07:00+17вюв119867 0.1 101337
10:00+21юз008372 0.1 1015287
13:00+27ссв116957 2.6 10101017
16:00+24ссз129137 4.1 1006430
19:00+19ююв019826 5.6 100923
22:00+18вюв119833 0.0 101323
6 марта, сб
сб601:00+17юв019967 1.1 101223
04:00+17св119998 2.4 101223
07:00+18юз0110099 5.6 101444
10:00+18вюв0099100 1.3 101697
13:00+21сз1193100 1.8 1013285
16:00+21сз129584 2.1 1010365
19:00+19всв119981 2.1 101023
22:00+17вюв019854 0.1 101423
7 марта, вс
вс701:00+17в019972 0.5 101324
04:00+17вюв009995 0.0 101225
07:00+18вюв019898 0.0 101439
10:00+19зсз0096100 0.1 101545
13:00+26ссз1173100 2.5 1012587
16:00+24с129292 6.9 1010482
19:00+20юв019896 12.3 101324
22:00+19зсз0199100 1.3 101423
8 марта, пн
пн801:00+19в01100100 1.8 101331
04:00+18юв0199100 0.3 101223
07:00+18в0098100 0.3 101424
10:00+22юз1192100 1.1 1015246
13:00+23юв0192100 4.3 1013131
16:00+24св119298 4.0 1009465
19:00+20в019799 6.7 101123
22:00+18вюв119893 0.3 101423
9 марта, вт
вт901:00+17в019990 0.3 101223
04:00+17всв01100100 0.1 101123
07:00+18юз00100100 0.8 101338
10:00+19св0099100 3.1 1015122
13:00+24с137991 4.6 1012706
16:00+23ссз129470 5.2 1009404
19:00+20зсз019885 8.6 101123
22:00+19з01100100 4.4 101425